Location: Doln� Metelsko
(49.5654°N, 12.9143°E)
Time: 09:39:55
(UTC+00:00)

Daily predictions for brighter satellites

Satellite Brightness Start Highest point End
(mag) Time Altitude Azimuth Time Altitude Azimuth Time Altitude Azimuth
CZ-2C R/B 3.0 19:36:40 10° NNE 19:42:19 81° WNW 19:47:56 10° SSW
STARLINK-1237 3.6 19:39:53 10° SW 19:44:01 68° SSE 19:48:08 10° ENE
STARLINK-1083 4.5 19:41:24 10° WNW 19:45:18 40° SW 19:49:10 10° SSE
STARLINK-1218 4.3 19:42:42 10° W 19:46:48 60° NNW 19:50:55 10° ENE
STARLINK-1084 3.7 19:43:34 10° WNW 19:47:44 83° NNE 19:51:53 10° ESE
Cosmos 1674 Rocket 4.1 19:44:05 10° SSE 19:48:10 40° E 19:52:18 10° NNE
Meteor 2-4 Rocket 3.7 19:42:55 10° SSW 19:48:16 87° W 19:53:41 10° NNE
STARLINK-1202 3.6 19:44:51 10° WSW 19:48:59 73° SSE 19:53:07 10° ENE
NOSS 2-2 (E) 4.3 19:47:04 10° S 19:50:01 24° ESE 19:53:12 10° ENE
EXPRESS MD2 4.0 19:48:10 10° SSW 19:50:56 31° SE 19:55:36 10° ENE
Cosmos 1378 Rocket 4.4 19:47:10 10° SSE 19:51:08 33° E 19:55:04 10° NNE
STARLINK-1254 4.3 19:47:42 10° W 19:51:48 58° N 19:55:54 10° ENE
Cosmos 1833 Rocket 3.7 19:47:22 10° NW 19:52:40 44° WSW 19:57:57 10° S
STARLINK-1098 3.7 19:48:33 10° WNW 19:52:43 86° NNE 19:56:52 10° ESE
Cosmos 2297 4.1 19:49:38 10° S 19:54:55 42° ESE 20:00:18 10° NE
Cosmos 1943 Rocket 3.5 19:51:39 10° SE 19:55:36 20° E 19:59:35 10° NE
STARLINK-1231 4.4 19:52:41 10° W 19:56:47 57° N 20:00:53 10° ENE
STARLINK-1123 3.6 19:53:31 10° WNW 19:57:41 90° SSE 20:01:50 10° ESE
STARLINK-1246 3.6 19:54:48 10° WSW 19:58:56 81° SSE 20:03:06 10° ENE
Cosmos 2082 Rocket 2.6 19:53:48 10° NW 19:59:27 62° WSW 20:05:03 10° SSE
IGS 5A 3.6 19:56:04 10° SSE 20:00:10 65° ENE 20:04:18 10° N
Cosmos 1420 Rocket 4.4 19:56:09 10° SSW 20:01:19 68° WNW 20:06:31 10° NNE
Cosmos 1452 Rocket 3.6 19:56:16 10° SSW 20:01:33 88° ESE 20:06:53 10° NNE
STARLINK-1232 4.4 19:57:42 10° W 20:01:48 56° N 20:05:53 10° ENE
Cosmos 332 Rocket 3.8 19:56:57 10° SSW 20:01:50 72° ESE 20:06:44 10° NNE
BREEZE-M DEB 3.9 20:00:03 10° S 20:01:56 18° SE 20:04:59 10° E
Intercosmos 24 3.9 19:58:36 10° NNW 20:02:10 69° W 20:05:55 10° S
STARLINK-1097 3.6 19:58:31 10° WNW 20:02:41 86° SSW 20:06:50 10° ESE
Landsat 7 3.9 19:58:26 10° SSE 20:03:10 72° ENE 20:07:56 10° N
STARLINK-1224 3.6 19:59:46 10° WSW 20:03:55 85° SSE 20:08:04 10° ENE
Meteor 1-23 Rocket 4.5 20:00:53 10° S 20:06:22 52° E 20:11:50 10° NNE
STARLINK-1208 4.4 20:02:41 10° W 20:06:46 55° N 20:10:51 10° ENE
STARLINK-1099 3.6 20:03:30 10° WNW 20:07:39 82° SSW 20:11:48 10° ESE
Cosmos 1461 2.9 20:04:07 10° SSW 20:08:12 60° SE 20:12:32 10° NE
STARLINK-1225 3.6 20:04:45 10° WSW 20:08:54 89° SSE 20:13:04 10° ENE
Okean 3 4.4 20:06:05 10° SSW 20:10:17 53° WNW 20:14:32 10° N
SAR-Lupe-2 3.7 20:07:02 10° NNE 20:10:35 55° ESE 20:14:06 10° S
Cosmos 2369 Rocket 3.6 20:07:32 10° SE 20:11:30 20° E 20:15:29 10° NE
STARLINK-1271 4.4 20:07:43 10° W 20:11:48 54° N 20:15:53 10° ENE
STARLINK-1104 3.6 20:08:28 10° WNW 20:12:37 78° SSW 20:16:40 11° ESE
STARLINK-1230 3.7 20:09:43 10° WSW 20:13:52 87° NNW 20:18:03 10° ENE
STARLINK-1212 4.0 20:10:55 10° WNW 20:13:55 43° N 20:16:55 10° E
STARLINK-1105 4.0 20:11:23 10° WNW 20:14:23 43° N 20:17:22 10° E
NOSS 2-2 (C) 3.9 20:11:16 10° S 20:14:28 32° ESE 20:18:00 10° ENE
STARLINK-1247 4.0 20:12:16 10° WNW 20:15:17 43° N 20:18:17 10° E
STARLINK-1227 4.0 20:12:46 10° WNW 20:15:46 43° N 20:18:45 10° E
STARLINK-1226 4.0 20:13:37 10° WNW 20:16:37 43° N 20:19:39 10° E
STARLINK-1154 4.5 20:12:43 10° W 20:16:48 53° N 20:20:52 10° ENE
SL-4 R/B 4.0 20:16:02 10° W 20:17:03 11° WSW 20:18:04 10° SW
STARLINK-1215 4.0 20:14:31 10° WNW 20:17:32 43° N 20:20:33 10° E
STARLINK-1144 3.6 20:13:27 10° WNW 20:17:36 74° SSW 20:21:27 12° ESE
ATLAS 2AS CENTAUR R/B 4.3 20:13:19 10° SSE 20:18:38 20° ESE 20:23:57 10° ENE
STARLINK-1243 3.7 20:14:43 10° WSW 20:18:53 83° NNW 20:23:03 10° ENE
SPOT 5 3.4 20:14:18 11° SSE 20:19:17 57° ENE 20:24:33 10° N
STARLINK-1217 4.0 20:16:20 10° WNW 20:19:21 44° N 20:22:22 10° E
NOSS 3-2 (A) 4.2 20:12:22 10° NW 20:19:41 72° NE 20:27:48 11° SE
STARLINK-1229 4.0 20:17:15 10° WNW 20:20:16 44° N 20:23:17 10° E
STARLINK-1270 4.0 20:18:08 10° WNW 20:21:10 44° N 20:24:11 10° E
STARLINK-1197 4.5 20:17:42 10° W 20:21:46 52° N 20:25:50 10° ENE
NOSS 8 (F) 4.2 20:18:36 10° SW 20:21:47 82° NW 20:24:50 10° NE
STARLINK-1103 3.7 20:18:26 10° WNW 20:22:34 69° SSW 20:26:14 13° SE
STARLINK-1189 4.0 20:19:57 10° WNW 20:22:58 44° N 20:26:00 10° E
STARLINK-1236 3.8 20:19:41 10° WSW 20:23:50 80° NNW 20:28:01 10° ENE
STARLINK-1188 4.0 20:20:51 10° WNW 20:23:53 44° N 20:26:54 10° E
ERS-1 Rocket 3.1 20:19:40 11° SSE 20:24:28 70° ENE 20:29:30 10° N
STARLINK-1187 3.9 20:21:57 10° WNW 20:24:58 45° N 20:27:58 10° E
STARLINK-1191 3.9 20:23:18 10° WNW 20:26:19 45° N 20:29:19 10° E
STARLINK-1198 4.5 20:22:42 10° W 20:26:46 52° N 20:30:50 10° ENE
STARLINK-1221 3.9 20:24:16 10° WNW 20:27:17 45° N 20:30:17 10° E
STARLINK-1101 3.7 20:23:25 10° WNW 20:27:32 65° SSW 20:31:01 14° SE
STARLINK-1222 3.9 20:25:07 10° WNW 20:28:07 45° N 20:31:08 10° E
Okean 2 4.4 20:25:57 14° SSE 20:28:58 31° E 20:32:39 10° NNE
STARLINK-1214 3.9 20:26:00 10° WNW 20:29:01 45° N 20:32:02 10° E
Cosmos 1066 Rocket 4.1 20:24:05 10° S 20:29:27 74° E 20:34:48 10° NNE
USA 245 3.4 20:28:07 10° S 20:30:55 40° WSW 20:33:21 10° NNW
USA 238 DEB 3.9 20:24:25 10° NW 20:31:37 79° NE 20:38:25 13° SE
USA 238 4.0 20:24:31 10° NW 20:31:44 79° NE 20:38:32 13° SE
STARLINK-1199 4.5 20:27:43 10° W 20:31:47 52° N 20:35:51 10° ENE
STARLINK-1102 3.8 20:28:24 10° WNW 20:32:30 61° SSW 20:35:48 15° SE
STARLINK-1228 3.8 20:30:04 10° WNW 20:33:31 55° NNE 20:36:58 10° E
Okean 1 Rocket 3.2 20:29:13 10° NNW 20:33:42 81° W 20:37:54 11° S
STARLINK-1269 3.9 20:29:40 10° WSW 20:33:49 74° NNW 20:37:59 10° ENE
Cosmos 1805 3.3 20:30:05 10° N 20:34:01 65° E 20:37:07 15° SSE
Resurs 01 Rocket 3.6 20:30:58 10° SSW 20:34:40 25° W 20:38:24 10° NW
Cosmos 2278 Rocket 3.8 20:29:30 10° WSW 20:34:47 39° NW 20:40:07 10° NNE
TSX-5 4.3 20:29:19 10° SSW 20:34:48 83° WNW 20:39:03 10° NNE
Nadezhda 4 Rocket 3.9 20:29:46 10° S 20:35:54 78° E 20:42:02 10° NNE
STARLINK-1210 4.5 20:32:42 10° W 20:36:46 51° N 20:40:50 10° ENE
STARLINK-1235 3.7 20:33:42 10° WNW 20:36:54 52° NNE 20:40:04 10° E
STARLINK-1111 3.8 20:33:23 10° WNW 20:37:28 57° SSW 20:40:34 16° SE
STARLINK-1200 3.9 20:34:39 10° WSW 20:38:48 71° NNW 20:42:57 10° ENE
Cosmos 1455 Rocket 3.9 20:35:14 10° N 20:39:17 37° ENE 20:42:18 16° SE
STARLINK-1219 4.5 20:37:42 10° WNW 20:41:46 51° N 20:45:49 10° ENE
STARLINK-1073 3.9 20:38:23 10° WNW 20:42:27 54° SSW 20:45:22 18° SE
SL-8 R/B 4.0 20:38:02 10° W 20:42:40 49° SSW 20:46:16 16° SE
STARLINK-1192 4.0 20:39:39 10° W 20:43:48 68° NNW 20:47:57 10° ENE
ATLAS CENTAUR R/B 3.7 20:45:33 10° NNW 20:46:03 11° N 20:46:33 10° NNE
STARLINK-1211 4.5 20:42:43 10° WNW 20:46:47 51° N 20:50:50 10° ENE
STARLINK-1121 4.0 20:43:22 10° WNW 20:47:23 50° SSW 20:50:08 19° SE
ATLAS 3B CENTAUR R/B 4.4 20:39:58 10° SW 20:47:26 18° SSW 20:50:57 14° SSE
Terra 1.9 20:44:22 16° SSE 20:48:08 72° ENE 20:52:55 10° N
SL-4 R/B 3.4 20:44:23 10° SSW 20:48:15 25° SE 20:52:11 10° E
Cosmos 1110 Rocket 4.0 20:43:17 10° SSW 20:48:29 89° ESE 20:53:41 10° NNE
STARLINK-1244 4.0 20:44:38 10° W 20:48:46 66° NNW 20:52:55 10° ENE
SPOT 1/Viking Rocket 4.1 20:45:18 10° S 20:50:21 55° W 20:55:25 10° NNW
Abrixas rocket 3.4 20:48:36 10° W 20:50:59 22° SSW 20:51:50 20° S
Cosmos 1842 3.9 20:48:52 19° SSE 20:51:14 38° E 20:54:52 10° NNE
CARTOSAT-1 3.7 20:47:49 14° S 20:51:26 71° WSW 20:55:46 10° NNW
STARLINK-1245 4.5 20:47:42 10° WNW 20:51:46 52° N 20:55:50 10° E
STARLINK-1106 4.1 20:48:23 10° WNW 20:52:22 47° SW 20:54:56 20° SSE
STARLINK-1138 4.1 20:49:39 10° W 20:53:46 64° NNW 20:57:54 10° ENE
STARLINK-1234 3.4 20:51:29 10° WNW 20:54:45 62° NNE 20:57:43 12° E
STARLINK-1233 4.5 20:52:40 10° WNW 20:56:44 52° N 21:00:48 10° E
STARLINK-1112 4.2 20:53:21 10° WNW 20:57:18 44° SW 20:59:42 21° SSE
STARLINK-1143 4.2 20:54:37 10° W 20:58:45 62° NNW 21:02:52 10° ENE
STARLINK-1209 3.3 20:57:26 10° WNW 21:00:44 68° NNE 21:03:27 14° E
STARLINK-1204 4.4 20:57:41 10° WNW 21:01:45 52° N 21:05:49 10° E
STARLINK-1128 4.2 20:58:21 10° WNW 21:02:15 41° SW 21:04:28 22° SSE
STARLINK-1241 4.2 20:59:40 10° W 21:03:46 60° NNW 21:07:54 10° ENE
Cosmos 1331 Rocket 4.2 21:00:08 10° SSW 21:05:18 75° WNW 21:10:31 10° NNE
Aureole 2 Rocket 4.1 21:03:24 10° WSW 21:06:08 28° WNW 21:08:46 10° N
STARLINK-1238 4.4 21:02:41 10° WNW 21:06:46 53° N 21:10:50 10° E
Cosmos 1733 3.2 21:03:17 10° NNW 21:07:07 80° W 21:09:32 21° S
STARLINK-1113 4.4 21:03:22 10° WNW 21:07:13 38° SW 21:09:15 23° SSE
STARLINK-1239 4.3 21:04:39 10° W 21:08:45 59° N 21:12:52 10° ENE
Meteor 1-21 4.5 21:07:51 19° SSE 21:11:46 52° E 21:17:12 10° NNE
STARLINK-1201 4.4 21:07:41 10° WNW 21:11:46 53° N 21:15:50 10° E
COSMOS 2455 4.2 21:09:45 17° SE 21:11:53 21° ESE 21:16:14 10° ENE
STARLINK-1119 4.4 21:08:23 10° WNW 21:12:12 35° SW 21:14:04 23° S
Cosmos 1378 3.8 21:09:41 11° SSW 21:13:13 54° WNW 21:16:52 10° N
STARLINK-1240 4.3 21:09:38 10° W 21:13:44 57° N 21:17:50 10° ENE
Cosmos 1486 Rocket 4.0 21:09:23 10° NNW 21:14:43 80° ENE 21:18:13 22° SSE
USA 215 3.8 21:08:38 10° E 21:15:03 59° NNE 21:21:27 10° WNW
Cosmos 1302 Rocket 4.0 21:10:13 11° SSW 21:15:22 75° ESE 21:20:41 10° NNE
Cosmos 1271 Rocket 3.6 21:14:22 24° SE 21:15:56 33° E 21:19:30 10° NNE
Cosmos 1544 Rocket 3.7 21:11:51 10° N 21:16:10 62° ENE 21:18:39 24° SSE
STARLINK-1206 4.3 21:12:41 10° WNW 21:16:47 54° N 21:20:51 10° E
Cosmos 1242 Rocket 3.0 21:15:26 26° SSE 21:17:06 47° E 21:20:39 10° NNE
MTI 3.6 21:14:13 10° NNE 21:17:22 79° ESE 21:18:58 26° S
STARLINK-1203 4.4 21:14:29 10° W 21:18:38 56° N 21:22:47 10° ENE
STARLINK-1216 4.3 21:14:38 10° W 21:18:43 56° N 21:22:49 10° ENE
STARLINK-60 3.5 21:20:10 33° SE 21:20:10 33° SE 21:23:04 10° ENE
Cosmos 1092 Rocket 4.1 21:15:30 11° SSW 21:21:27 79° W 21:27:38 10° N
STARLINK-1205 4.3 21:17:40 10° WNW 21:21:46 55° N 21:25:51 10° E
NOSS 2-2 (D) 3.7 21:19:14 10° SW 21:22:49 63° NW 21:26:58 10° NE
STARLINK-1237 4.4 21:19:38 10° W 21:23:43 55° N 21:27:49 10° ENE
CENTAUR R/B 3.2 21:16:15 10° NW 21:24:13 90° ENE 21:31:08 18° SE
Cosmos 1707 3.6 21:24:35 25° SE 21:26:02 34° E 21:29:35 10° NNE
STARLINK-1218 4.3 21:22:40 10° WNW 21:26:46 56° N 21:30:52 10° E
ATLAS 3B R/B 3.2 21:20:48 10° NW 21:27:27 57° NE 21:33:57 12° ESE
SL-27 R/B 2.8 21:24:18 10° NNW 21:27:51 58° WSW 21:29:28 29° S
STARLINK-1202 4.4 21:24:39 10° W 21:28:44 54° N 21:32:49 10° ENE
NOSS 3-2 (C) 4.1 21:21:58 10° NW 21:29:26 79° SW 21:35:37 20° SSE
Cosmos 1726 3.4 21:27:56 10° N 21:31:16 30° ENE 21:32:50 22° ESE
STARLINK-1254 4.2 21:27:39 10° WNW 21:31:46 57° N 21:35:51 10° E
ALOS 2 4.1 21:30:24 16° ESE 21:33:02 27° ENE 21:36:44 10° N
Cosmos 1867 3.7 21:28:53 10° NW 21:34:22 73° NE 21:38:07 21° SE
COSMOS 2487 3.7 21:32:18 10° N 21:35:29 32° ENE 21:37:03 21° ESE
STARLINK-1231 4.2 21:32:38 10° WNW 21:36:45 59° NNE 21:40:51 10° E
Cosmos 1943 Rocket 2.3 21:33:10 10° SW 21:38:43 74° WNW 21:44:22 10° NNE
STARLINK-1246 4.4 21:34:40 10° W 21:38:45 53° N 21:42:49 10° ENE
Cosmos 1992 Rocket 4.3 21:36:08 24° S 21:38:57 50° ESE 21:43:59 10° NNE
NOSS 3-4 (A) 3.7 21:36:32 20° S 21:40:16 45° ESE 21:46:13 10° NE
NOSS 3-4 (C) 3.8 21:36:40 21° S 21:40:22 44° ESE 21:46:20 10° NE
STARLINK-1232 4.1 21:37:38 10° WNW 21:41:45 60° NNE 21:45:52 10° E
SeaSat 1 3.0 21:37:48 10° NE 21:42:27 40° ESE 21:44:34 27° SSE
EO 1 Del DPAF 3.5 21:39:29 10° NNE 21:43:11 50° E 21:44:29 33° SSE
STARLINK-1224 4.5 21:39:39 10° W 21:43:44 52° N 21:47:48 10° ENE
STARLINK-1208 4.1 21:42:36 10° WNW 21:46:44 62° NNE 21:50:51 10° E
Cosmos 1975 Rocket 3.9 21:44:36 14° SSW 21:48:16 47° WNW 21:52:32 10° N
STARLINK-1225 4.5 21:44:40 10° W 21:48:44 52° N 21:52:49 10° ENE
STARLINK-1212 2.7 21:46:48 10° WNW 21:49:55 80° SSW 21:50:47 44° SE
STARLINK-1105 2.7 21:47:16 10° WNW 21:50:23 80° SSW 21:51:13 45° SE
Meteor 2-10 4.0 21:46:00 10° N 21:51:03 70° ENE 21:53:43 28° SSE
STARLINK-1247 2.7 21:48:09 10° WNW 21:51:16 79° SSW 21:52:06 45° SE
STARLINK-1227 2.7 21:48:38 10° WNW 21:51:44 78° SSW 21:52:33 46° SE
STARLINK-1271 4.0 21:47:37 10° WNW 21:51:45 64° NNE 21:55:52 10° E
Cosmos 292 Rocket 3.8 21:48:20 18° SSW 21:51:56 85° WNW 21:56:50 10° NNE
BREEZE-M DEB (TANK) 3.3 21:39:58 10° WSW 21:52:21 80° SSE 21:55:49 10° E
STARLINK-1226 2.7 21:49:30 10° WNW 21:52:37 77° SSW 21:53:24 46° SE
BREEZE-M DEB (TANK) 2.8 21:49:17 10° W 21:53:01 82° S 21:57:06 10° ESE
STARLINK-1215 2.7 21:50:23 10° WNW 21:53:31 76° SSW 21:54:16 47° SE
STARLINK-1230 4.5 21:49:40 10° W 21:53:44 52° N 21:57:48 10° ENE
RESURS DK-1 4.2 21:53:57 16° ESE 21:54:05 16° ESE 21:56:36 10° ENE
Cosmos 2227 Rocket 4.4 21:50:11 10° N 21:54:19 20° NE 21:58:27 10° E
S3M 4.0 21:48:13 10° N 21:54:24 81° E 21:58:10 26° SSE
Cosmos 2369 Rocket 2.3 21:49:14 10° SSW 21:54:54 77° WNW 22:00:35 10° NNE
STARLINK-1217 2.7 21:52:12 10° WNW 21:55:20 74° SSW 21:56:00 50° SE
STARLINK-1229 2.7 21:53:07 10° WNW 21:56:14 73° SSW 21:56:54 50° SE
STARLINK-1154 3.9 21:52:36 10° WNW 21:56:44 66° NNE 22:00:52 10° E
STARLINK-1270 2.7 21:54:01 10° WNW 21:57:08 72° SSW 21:57:45 52° SE
STARLINK-1243 4.5 21:54:41 10° WNW 21:58:44 51° N 22:02:48 10° ENE
STARLINK-1189 2.7 21:55:48 10° WNW 21:58:55 70° SSW 21:59:29 53° SE
STARLINK-1188 2.7 21:56:43 10° WNW 21:59:50 69° SSW 22:00:22 54° SSE
ATLAS CENTAUR R/B 1.9 21:59:35 34° SSE 22:00:45 42° ESE 22:04:40 10° NE
STARLINK-1187 2.8 21:57:50 10° WNW 22:00:54 62° SSW 22:01:14 56° S
Cosmos 1340 Rocket 3.0 21:56:52 10° N 22:00:55 63° ENE 22:02:31 34° SE
STARLINK-1197 3.9 21:57:33 10° WNW 22:01:42 68° NNE 22:05:46 10° E
STARLINK-1191 2.7 21:59:10 10° WNW 22:02:15 67° SSW 22:02:39 57° SSE
Aureole 3 3.5 21:59:40 10° N 22:02:46 38° ENE 22:03:24 33° ESE
STARLINK-1221 2.8 22:00:07 10° WNW 22:03:12 66° SSW 22:03:34 58° SSE
STARLINK-1236 4.5 21:59:40 10° WNW 22:03:44 51° N 22:07:47 10° ENE
Thor Agena Rocket 3.5 21:58:39 10° NNE 22:03:59 86° ESE 22:07:12 25° SSW
STARLINK-1222 2.8 22:00:58 10° WNW 22:04:03 65° SSW 22:04:23 58° SSE
STARLINK-1214 2.8 22:01:52 10° WNW 22:04:57 64° SSW 22:05:15 59° S
Cosmos 1025 Rocket 2.9 22:02:57 30° SSW 22:05:02 86° WNW 22:09:23 10° N
NOSS 7 (A) 4.5 22:03:59 35° SW 22:05:08 90° ENE 22:08:04 10° NE
Cosmos 1908 4.3 22:02:25 10° N 22:05:57 35° ENE 22:07:21 26° ESE
EXPRESS MD2 4.3 22:02:16 10° W 22:06:29 88° N 22:15:33 10° E
STARLINK-1198 3.8 22:02:32 10° WNW 22:06:41 71° NNE 22:10:33 12° ESE
Cosmos 1553 Rocket 4.2 22:01:38 10° NNW 22:07:51 64° W 22:11:43 23° SSW
ATLAS 2AS CENTAUR R/B 3.0 22:00:33 10° SSW 22:08:29 73° SE 22:16:23 10° NE
Cosmos 1656 Rocket 3.6 22:04:50 22° SSW 22:08:31 76° ESE 22:14:05 10° NNE
BREEZE M DEB (TANK) 1.5 22:05:46 10° W 22:08:33 86° WSW 22:08:33 86° WSW
Cosmos 1953 2.2 22:05:13 10° N 22:09:14 90° ESE 22:10:41 38° S
BREEZE-M DEB (TANK) 4.1 21:58:30 10° WNW 22:10:03 51° SW 22:11:56 31° SSE
Cosmos 1470 3.7 22:06:36 10° NNW 22:10:14 38° W 22:11:51 25° SW
STARLINK-1228 3.4 22:07:22 10° WNW 22:10:46 49° SSW 22:11:08 46° S
STARLINK-1199 3.8 22:07:32 10° WNW 22:11:42 74° NNE 22:15:20 13° ESE
APEX 4.4 22:06:47 10° SW 22:13:07 76° WNW 22:18:21 10° NNE
STARLINK-1235 3.2 22:10:05 10° WNW 22:13:11 47° SSW 22:13:11 47° SSW
STARLINK-1269 4.5 22:09:40 10° WNW 22:13:45 52° N 22:17:48 10° E
Cosmos 2292 Rocket 3.3 22:13:24 41° SE 22:14:14 52° E 22:17:21 10° NNE
Cosmos 968 Rocket 4.2 22:10:15 10° NW 22:15:06 42° WSW 22:17:31 25° SSW
STARLINK-1210 3.7 22:12:30 10° WNW 22:16:40 77° NNE 22:20:06 15° ESE
STARLINK-1200 4.5 22:14:39 10° WNW 22:18:43 52° N 22:22:47 10° E
Cosmos 1655 Rocket 4.0 22:15:01 24° S 22:18:57 86° W 22:25:17 10° N
SL-4 R/B 1.5 22:20:18 47° N 22:20:18 47° N 22:21:59 10° N
Cosmos 1777 Rocket 4.4 22:15:05 10° NNW 22:20:17 58° ENE 22:23:19 24° SE
STARLINK-1219 3.6 22:17:29 10° WNW 22:21:38 80° NNE 22:24:52 16° ESE
ATLAS 5 CENTAUR R/B 1.1 22:21:46 33° SSW 22:23:04 68° SE 22:25:16 10° NE
STARLINK-1192 4.4 22:19:39 10° WNW 22:23:44 52° N 22:27:48 10° E
STARLINK-52 3.5 22:26:27 41° ESE 22:26:27 41° ESE 22:28:54 10° ENE
Terra 4.0 22:23:27 10° SW 22:26:25 16° W 22:29:23 10° NW
STARLINK-1211 3.6 22:22:28 10° WNW 22:26:38 84° NNE 22:29:41 18° ESE
Cosmos 2228 3.3 22:22:47 10° N 22:26:59 56° ENE 22:28:36 33° SE
SL-4 R/B 2.3 22:22:43 10° WSW 22:27:32 76° SSE 22:32:22 10° ENE
Cosmos 1726 Rocket 4.1 22:23:32 10° N 22:27:44 47° ENE 22:29:31 29° SE
Meteor 2-15 4.4 22:21:35 10° N 22:27:46 89° E 22:31:06 29° S
STARLINK-1244 4.4 22:24:38 10° WNW 22:28:43 53° N 22:32:48 10° E
STARLINK-1234 4.1 22:27:56 10° WNW 22:30:17 30° WSW 22:30:17 30° WSW
STARLINK-1245 3.5 22:27:27 10° WNW 22:31:37 87° NNE 22:34:26 20° ESE
Cosmos 1300 4.4 22:28:45 10° NNE 22:31:55 24° ENE 22:33:33 18° ESE
In-Cosmos 22 4.0 22:30:05 30° S 22:32:47 89° E 22:38:06 10° NNE
Cosmos 921 Rocket 4.4 22:31:52 22° ESE 22:32:49 24° E 22:36:20 10° NE
STARLINK-1138 4.4 22:29:38 10° WNW 22:33:43 54° N 22:37:48 10° E
STARLINK-1233 3.5 22:32:24 10° WNW 22:36:35 89° SSW 22:39:11 22° ESE
STARLINK-1209 4.4 22:34:09 10° W 22:36:14 25° WSW 22:36:14 25° WSW
Cosmos 2266 Rocket 3.9 22:33:43 27° SSW 22:37:13 85° W 22:43:18 10° N
STARLINK-1143 4.3 22:34:36 10° WNW 22:38:42 55° N 22:42:47 10° E
STARLINK-1204 3.5 22:37:24 10° WNW 22:41:34 85° SSW 22:43:59 24° ESE
SJ 16-02 3.5 22:39:51 10° N 22:43:19 22° NE 22:46:46 10° ESE
STARLINK-1241 4.3 22:39:38 10° WNW 22:43:44 56° N 22:47:50 10° E
STARLINK-1238 3.5 22:42:24 10° WNW 22:46:34 81° SSW 22:48:47 26° ESE
Meteor 2-15 Rocket 4.4 22:41:31 10° NNW 22:47:41 82° W 22:50:55 30° S
STARLINK-1239 4.3 22:44:37 10° WNW 22:48:43 57° N 22:52:49 10° E
Helios 1B rocket 4.0 22:45:44 10° NE 22:49:03 23° E 22:50:09 20° ESE
Cosmos 1674 2.5 22:48:20 48° S 22:49:20 88° E 22:53:08 10° N
STARLINK-1201 3.5 22:47:22 10° WNW 22:51:32 77° SSW 22:53:33 29° SE
STARLINK-1240 4.2 22:49:35 10° WNW 22:53:42 58° N 22:57:48 10° E
STARLINK-1353 4.4 22:55:17 29° ESE 22:55:17 29° ESE 22:57:56 10° ENE
STARLINK-60 3.4 22:53:00 10° W 22:56:09 61° NNW 22:59:20 10° ENE
STARLINK-1206 3.5 22:52:22 10° WNW 22:56:31 72° SSW 22:58:21 32° SE
COSMOS 2455 2.9 22:52:50 20° SW 22:57:08 83° NW 23:03:12 10° NE
STARLINK-1375 4.3 22:58:33 32° ESE 22:58:33 32° ESE 23:01:22 10° ENE
USA 215 3.2 22:52:57 18° SE 22:58:01 69° SW 23:04:35 10° WNW
Cosmos 2219 3.7 22:52:30 10° NNW 22:58:06 56° NE 23:02:17 18° SE
STARLINK-1216 4.2 22:54:34 10° WNW 22:58:41 60° NNE 23:02:47 10° E
STARLINK-1203 4.2 22:54:39 10° WNW 22:58:49 60° NNE 23:03:00 10° E
STARLINK-1352 4.3 23:01:56 31° ESE 23:01:56 31° ESE 23:04:31 10° ENE
STARLINK-1350 4.2 23:01:49 34° SE 23:01:49 34° SE 23:04:48 10° ENE
STARLINK-1205 3.5 22:57:20 10° WNW 23:01:29 68° SSW 23:03:07 34° SE
Cosmos 2297 Rocket 2.9 22:56:50 10° NNW 23:02:21 51° NE 23:07:00 14° SE
Helios 1A 2.9 23:01:35 41° S 23:02:58 75° WSW 23:07:11 10° NNW
STARLINK-1237 4.1 22:59:33 10° WNW 23:03:41 61° NNE 23:07:48 10° E
Lacrosse 4 Rocket 3.7 23:02:23 10° NNW 23:05:57 24° NE 23:09:26 10° E
Cosmos 1726 3.8 23:03:23 10° NW 23:06:20 22° W 23:07:20 20° WSW
STARLINK-1218 3.5 23:02:20 10° WNW 23:06:27 64° SSW 23:07:55 37° SE
STARLINK-1368 3.9 23:08:27 39° SE 23:08:27 39° SE 23:11:45 10° ENE
Cosmos 1174 4.2 23:06:36 26° WSW 23:08:11 50° NW 23:12:01 10° NNE
STARLINK-1202 4.0 23:04:33 10° WNW 23:08:41 63° NNE 23:12:48 10° E
ALOS 2 3.4 23:07:47 30° SW 23:09:13 38° W 23:13:21 10° NNW
Timation 2 Rocket 3.9 23:03:27 10° NW 23:09:46 69° WSW 23:12:54 30° S
Cosmos 2058 Rocket 3.0 23:05:48 10° N 23:10:16 83° E 23:11:58 38° SSE
COSMOS 2487 4.2 23:07:44 10° NW 23:10:20 20° W 23:10:32 20° WSW
STARLINK-1254 3.6 23:07:19 10° WNW 23:11:25 60° SSW 23:12:41 40° SSE
STARLINK-1369 3.8 23:11:47 42° SE 23:11:47 42° SE 23:15:15 10° ENE
CENTAUR R/B 4.2 23:07:39 10° WNW 23:14:24 29° WSW 23:18:17 21° SSW
STARLINK-1372 3.7 23:15:07 44° SE 23:15:07 44° SE 23:18:45 10° ENE
STARLINK-1231 3.6 23:12:18 10° WNW 23:16:22 56° SSW 23:17:27 42° SSE
Meteor 2-5 Rocket 3.7 23:14:12 31° SSW 23:16:57 87° WNW 23:22:38 10° NNE
ATLAS 3B R/B 3.2 23:11:42 10° NW 23:18:03 43° WSW 23:21:10 28° S
STARLINK-1378 3.6 23:18:28 47° SSE 23:18:36 47° SSE 23:22:15 10° ENE
STARLINK-1246 3.9 23:14:32 10° WNW 23:18:40 68° NNE 23:22:49 10° E
SeaSat 1 3.6 23:15:24 10° NNE 23:19:58 39° NW 23:24:21 11° WSW
SL-14 R/B 3.2 23:19:11 46° SSE 23:20:12 71° E 23:24:04 10° NNE
Cosmos 1606 Rocket 4.2 23:16:07 10° NNW 23:20:12 41° W 23:21:36 31° SW
FALCON 9 DEB 3.0 23:20:07 42° WSW 23:21:09 86° SSE 23:24:38 10° ENE
STARLINK-1232 3.7 23:17:18 10° WNW 23:21:21 53° SSW 23:22:15 43° S
STARLINK-1379 3.5 23:21:51 48° SSE 23:22:07 49° SSE 23:25:48 10° ENE
STARLINK-1329 3.5 23:23:14 49° SSE 23:23:33 50° SSE 23:27:15 10° ENE
STARLINK-1224 3.9 23:19:31 10° WNW 23:23:40 70° NNE 23:27:48 10° ESE
Meteor 2-21 4.4 23:20:59 30° S 23:24:17 89° W 23:30:32 10° N
STARLINK-29 3.3 23:24:02 21° W 23:26:02 65° NNW 23:29:14 10° ENE
STARLINK-1208 3.8 23:22:16 10° WNW 23:26:18 49° SSW 23:27:00 44° S
SL-16 R/B 4.1 23:21:08 10° ESE 23:26:22 30° ENE 23:31:37 10° N
STARLINK-1362 3.5 23:26:40 49° S 23:27:07 53° SSE 23:30:51 10° ENE
ATLAS CENTAUR R/B 1.2 23:26:15 10° NW 23:28:29 74° NE 23:32:45 10° ESE
STARLINK-1225 3.8 23:24:31 10° WNW 23:28:40 73° NNE 23:32:48 10° ESE
Cosmos 1656 4.5 23:27:53 26° SSE 23:30:16 38° ESE 23:35:26 10° NE
STARLINK-1373 3.4 23:30:05 49° S 23:30:41 56° SSE 23:34:26 10° ENE
NOSS 3-4 (A) 4.3 23:25:16 10° WSW 23:31:07 50° NW 23:37:28 10° NE
NOSS 3-4 (C) 4.3 23:25:20 10° WSW 23:31:13 50° NW 23:37:34 10° NE
STARLINK-1271 3.9 23:27:18 10° WNW 23:31:17 46° SW 23:31:49 43° S
RESURS DK-1 2.6 23:29:48 31° SW 23:31:37 64° WNW 23:35:46 10° NNE
STARLINK-1365 3.4 23:31:12 48° SSW 23:31:55 59° SSE 23:35:42 10° ENE
STARLINK-1230 3.7 23:29:29 10° WNW 23:33:38 76° NNE 23:37:48 10° ESE
STARLINK-1390 3.4 23:33:34 48° SSW 23:34:18 59° SSE 23:38:04 10° ENE
Cosmos 1697 Rocket 4.2 23:32:47 18° SE 23:35:22 25° ESE 23:39:52 10° NE
Cosmos 2084 3.5 23:33:36 30° SW 23:35:47 85° NW 23:40:17 10° NE
STARLINK-1154 3.9 23:32:18 10° WNW 23:36:14 43° SW 23:36:35 42° SSW
Cosmos 1812 Rocket 4.3 23:32:08 10° N 23:36:30 48° ENE 23:38:55 23° SE
Cosmos 1626 2.2 23:36:00 45° SSW 23:37:01 70° W 23:40:45 10° N
BREEZE-M R/B 3.5 23:31:44 14° SW 23:37:14 50° SSE 23:40:46 10° E
STARLINK-1243 3.7 23:34:29 10° WNW 23:38:38 79° NNE 23:42:48 10° ESE
Cosmos 990 Rocket 4.4 23:33:59 10° NNW 23:39:12 59° ENE 23:43:10 17° SE
Cosmos 2227 Rocket 2.3 23:33:38 10° NNW 23:39:21 78° ENE 23:43:29 19° SE
Okean 1-7 Rocket 3.8 23:37:39 34° SSW 23:39:28 66° WNW 23:44:01 10° N
ATLAS CENTAUR R/B 2.9 23:35:50 10° WSW 23:39:44 33° NW 23:43:26 10° NNE
STARLINK-1197 4.0 23:37:17 10° WNW 23:41:10 40° SW 23:41:21 40° SSW
CZ-4 R/B 3.8 23:36:58 10° NNE 23:41:47 83° ESE 23:43:50 34° S
STARLINK-1236 3.6 23:39:27 10° WNW 23:43:36 82° NNE 23:47:46 10° ESE
STARLINK-1198 4.1 23:42:17 10° WNW 23:46:07 37° SW 23:46:07 37° SW
Cosmos 1602 Rocket 3.9 23:47:23 32° SSE 23:49:09 55° E 23:53:23 10° NNE
SL-08 ROCKET BODY 4.4 23:46:46 28° S 23:49:59 73° E 23:55:49 10° NNE
STARLINK-1199 4.3 23:47:18 10° WNW 23:50:55 35° SW 23:50:55 35° SW
STARLINK-1269 3.5 23:49:25 10° WNW 23:53:35 90° NNE 23:57:44 10° ESE
STARLINK-1210 4.4 23:52:19 10° WNW 23:55:42 32° SW 23:55:42 32° SW
